Regional Weather Roundup
Issued by NWS

Home | Current Version | Previous Version | Graphics & Text | Print | Product List | Glossary On
Versions: 1 2 3 4 5 6 7 8 9 10 11 12 13 14 15 16 17 18 19 20 21 22 23 24 25 26 27 28 29 30 31 32 33 34 35 36 37 38 39 40 41 42 43 44 45 46 47 48 49 50
000
ASUS45 KBOU 030407
RWRCO

WEATHER ROUNDUP FOR COLORADO
NATIONAL WEATHER SERVICE DENVER/BOULDER CO
900 PM MST FRI DEC 02 2016

NOTE: "FAIR" INDICATES FEW OR NO CLOUDS BELOW 12000 FEET WITH NO
SIGNIFICANT WEATHER AND/OR OBSTRUCTIONS TO VISIBILITY.

COZ001>005-013-030-031-030500-
...NORTHWEST COLORADO...

CITY           SKY/WX    TMP DP  RH WIND       PRES   REMARKS
CRAIG          CLOUDY    22  15  75 W5        30.19R WCI  16
HAYDEN         CLOUDY    19  12  73 S3        30.16S
MEEKER         MOCLDY    13  10  88 CALM      30.18R
MOUNT WERNER   NOT AVBL
STEAMBOAT SPGS CLOUDY    18  15  88 CALM      30.16R
WALDEN           N/A     10   7  85 CALM      30.09F
$$

COZ006>008-011-030500-
...WEST CENTRAL VALLEYS...

CITY           SKY/WX    TMP DP  RH WIND       PRES   REMARKS
GRAND JUNCTION CLOUDY    30  19  63 N6        30.17R WCI  24
MONTROSE       LGT SNOW  28  25  88 S7        30.19R FOG     WCI  21
EAGLE          FLURRIES  25  21  85 W8        30.16R WCI  16
RIFLE          MOCLDY    26  23  88 E3        30.19R
DELTA          MOCLDY    32  27  82 NE6       30.18R WCI  26
NUCLA          CLOUDY    30  27  86 CALM      30.18R
$$

COZ017>023-064>068-030500-
...SOUTHWEST COLORADO...

CITY           SKY/WX    TMP DP  RH WIND       PRES   REMARKS
DURANGO        MOCLDY    29  26  89 CALM      30.07S
CORTEZ         LGT SNOW  31  31 100 NE6       30.10R FOG     WCI  25
PAGOSA SPRINGS CLOUDY    26  26  99 CALM      30.09R
TELLURIDE      FOG       19  19  97 CALM      30.09S VSB 1/2
WOLF CREEK PAS SNOW      14  14 100 S10G17    30.09S VSB 1/2 WCI   1
$$

COZ009-010-012-014-032>034-037-058>063-030500-
...CENTRAL COLORADO...

CITY           SKY/WX    TMP DP  RH WIND       PRES   REMARKS
ASPEN          LGT SNOW  21  19  92 N3        30.10R FOG
BUENA VISTA    FLURRIES  14  12  89 W3        30.13S
COPPER MTN     NOT AVBL
BERTHOUD PASS  FAIR       5  -8  56 W3        30.00R
COTTONWOOD PAS LGT SNOW  18  12  79 CALM      30.07S VSB 3/4
GUNNISON       FAIR      19  15  84 S6        30.10R WCI  11
KREMMLING      LGT SNOW  23  21  93 CALM      30.12S
LEADVILLE      LGT SNOW   7   3  84 NE5       30.06R FOG     WCI  -2
MONARCH PASS     N/A     12  10  92 SW12      30.14R WCI  -2
SALIDA         CLOUDY    21  18  90 CALM      30.22R
SUNLIGHT       LGT SNOW N/A N/A N/A W6        30.09S
WILKERSON PASS MOCLDY     9   5  85 SW9       30.05F FOG     WCI  -5
$$

COZ069>075-030500-
...SAN LUIS VALLEY/SANGRE DE CRISTO MOUNTAINS...

CITY           SKY/WX    TMP DP  RH WIND       PRES   REMARKS
ALAMOSA        CLOUDY    20  19  96 CALM      30.11S
LA VETA PASS   LGT SNOW  16  12  86 N6        30.08S WCI   7
SAGUACHE       CLOUDY    23  21  93 N3        30.11R
$$

COZ035-036-038>040-030500-
...NORTHERN COLORADO FRONT RANGE...

CITY           SKY/WX    TMP DP  RH WIND       PRES   REMARKS
DENVER INTL AP FAIR      20  15  81 S12       30.15S WCI   8
DMNS CITY PARK   N/A     29  23  79 SE6       30.15S WCI  22
AURORA         PTCLDY    22  17  83 SW9       30.15S WCI  11
FRONT RANGE AP PTCLDY    21  18  86 S7        30.16S WCI  13
ERIE MUNI ARPT CLOUDY    28  25  89 CALM      30.16S
BOULDER MUN AP CLOUDY    30  27  86 CALM      30.15S
CENTENNIAL     FAIR      22  17  81 S3        30.14S
BROOMFIELD     CLOUDY    28  27  93 N5        30.15S WCI  23
FORT COLLINS   CLOUDY    28  23  80 CALM      30.16F
LONGMONT       CLOUDY    31  27  86 CALM      30.18S
$$

COZ041-046-047-076>085-087-088-030500-
...PIKES PEAK/PALMER DIVIDE AND SOUTHERN FOOTHILLS...

CITY           SKY/WX    TMP DP  RH WIND       PRES   REMARKS
COLO. SPRINGS  CLOUDY    26  19  74 CALM      30.17S
A. F. ACADEMY  CLOUDY    21  18  86 S5        30.15S WCI  15
SCHRIEVER AFB  NOT AVBL
ELLICOTT       CLOUDY   N/A N/A N/A SE3       30.17S
FALCON         CLOUDY    23  17  77 S7        30.16S WCI  15
FORT CARSON    CLOUDY    27  18  68 S6        30.17S WCI  20
LIMON          CLOUDY    16  13  88 S3        30.19S
MONUMENT HILL  FAIR      16  12  86 SW7       30.14S WCI   6
TRINIDAD       CLOUDY    30  22  72 E9        30.19R WCI  22
$$

COZ042>045-048>051-090-091-030500-
...NORTHEAST COLORADO...

CITY           SKY/WX    TMP DP  RH WIND       PRES   REMARKS
GREELEY ARPT   CLOUDY    28  21  75 CALM      30.18F
AKRON          MOCLDY    26  18  71 S8        30.18F WCI  18
BURLINGTON     FAIR      27  17  66 SE5       30.23S WCI  22
WRAY           MOCLDY    28  21  74 W3        30.23S
STERLING       FAIR      23  21  93 CALM      30.19F
HOLYOKE        FAIR      28  19  69 S6        30.22F WCI  22
FORT MORGAN    FAIR      26  19  76 CALM      30.19F
$$

COZ086-089-092>099-030500-
...SOUTHEAST COLORADO...

CITY           SKY/WX    TMP DP  RH WIND       PRES   REMARKS
PUEBLO         CLOUDY    31  21  66 S3        30.21R
LA JUNTA       CLOUDY    34  18  52 SE5       30.23S WCI  30
LAMAR          MIX PCPN  36  19  50 CALM      30.22S
SPRINGFIELD      N/A     34  13  41 E3        30.22R
$$



USA.gov is the U.S. government's official web portal to all federal, state and local government web resources and services.